Regional Weather Roundup
Issued by NWS

Home | Current Version | Previous Version | Graphics & Text | Print | Product List | Glossary On
Versions: 1 2 3 4 5 6 7 8 9 10 11 12 13 14 15 16 17 18 19 20 21 22 23 24 25 26 27 28 29 30 31 32 33 34 35 36 37 38 39 40 41 42 43 44 45 46 47 48 49 50
460
ASUS43 KBIS 260802
RWRND

NORTH DAKOTA REGIONAL WEATHER ROUNDUP
NATIONAL WEATHER SERVICE BISMARCK ND
300 AM CDT WED JUL 26 2017

NOTE: "FAIR" INDICATES FEW OR NO CLOUDS BELOW 12,000 FEET WITH NO
SIGNIFICANT WEATHER AND/OR OBSTRUCTIONS TO VISIBILITY.


NDZ001>003-009>011-017-260900-
NORTHWEST NORTH DAKOTA

CITY           SKY/WX    TMP DP  RH WIND       PRES   REMARKS
WILLISTON      CLEAR     59  47  64 CALM      30.11R
MINOT          CLEAR     61  54  77 SW6       30.07R
MINOT AFB      CLEAR     55  52  89 NW7       30.05S
$$

NDZ018>021-031>035-040>046-260900-
SOUTHWEST NORTH DAKOTA

CITY           SKY/WX    TMP DP  RH WIND       PRES   REMARKS
BISMARCK       CLOUDY    68  56  65 NE8       30.07S
DICKINSON      PTCLDY    65  48  54 E5        30.10R
GARRISON         N/A     60  55  83 N3        30.08R
HETTINGER ARPT CLOUDY    64  53  67 CALM      30.11S
$$

NDZ004>008-012>016-024-026-027-054-260900-
NORTHEAST NORTH DAKOTA

CITY           SKY/WX    TMP DP  RH WIND       PRES   REMARKS
GRAND FORKS    PTCLDY    62  60  93 W7        29.97F
GRND FRKS AFB  CLEAR     60  58  91 W5        29.98F
DEVILS LAKE    CLEAR     65  62  90 SW7       30.04S
$$

NDZ022-023-025-028>030-036>039-047>053-260900-
SOUTHEAST NORTH DAKOTA

CITY           SKY/WX    TMP DP  RH WIND       PRES   REMARKS
FARGO          CLEAR     62  59  90 N3        29.98S
JAMESTOWN      CLOUDY    62  59  90 N3        30.02F
$$





USA.gov is the U.S. government's official web portal to all federal, state and local government web resources and services.